Time,TemperatureF,DewpointF,PressureIn,WindDirection,WindDirectionDegrees,WindSpeedMPH,WindSpeedGustMPH,Humidity,HourlyPrecipIn,Conditions,Clouds,dailyrainin,SoftwareType,DateUTC
2013-06-12 00:23:00,69.0,64.0,29.98,ENE,64,0.0,0.0,83,0.00,,,0.13,,2013-06-12 04:23:00,
2013-06-12 00:34:00,69.0,64.0,29.98,ENE,64,0.0,0.0,83,0.00,,,0.13,,2013-06-12 04:34:00,
2013-06-12 00:43:00,68.0,64.0,29.97,ENE,64,0.0,0.0,86,0.00,,,0.13,,2013-06-12 04:43:00,
2013-06-12 00:53:00,68.0,64.0,29.97,ENE,64,0.0,0.0,86,0.00,,,0.13,,2013-06-12 04:53:00,
2013-06-12 01:03:00,68.0,64.0,29.97,ENE,64,0.0,0.0,86,0.00,,,0.13,,2013-06-12 05:03:00,
2013-06-12 01:12:00,68.0,64.0,29.97,ENE,64,0.0,0.0,86,0.00,,,0.12,,2013-06-12 05:12:00,
2013-06-12 01:22:00,68.0,64.0,29.97,ENE,64,0.0,0.0,86,0.00,,,0.12,,2013-06-12 05:22:00,
2013-06-12 01:32:00,67.0,63.0,29.97,ENE,64,0.0,0.0,86,0.00,,,0.12,,2013-06-12 05:32:00,
2013-06-12 01:42:00,67.0,63.0,29.98,ENE,64,0.0,0.0,88,0.00,,,0.11,,2013-06-12 05:42:00,
2013-06-12 01:52:00,67.0,63.0,29.98,ENE,64,0.0,0.0,88,0.00,,,0.11,,2013-06-12 05:52:00,
2013-06-12 02:02:00,67.0,63.0,29.98,ENE,64,0.0,0.0,88,0.00,,,0.05,,2013-06-12 06:02:00,
2013-06-12 02:12:00,67.0,63.0,29.98,ENE,64,0.0,0.0,88,0.00,,,0.05,,2013-06-12 06:12:00,
2013-06-12 02:22:00,67.0,63.0,29.97,ENE,64,0.0,0.0,88,0.00,,,0.04,,2013-06-12 06:22:00,
2013-06-12 02:32:00,67.0,63.0,29.97,ENE,64,0.0,0.0,88,0.00,,,0.04,,2013-06-12 06:32:00,
2013-06-12 02:42:00,67.0,63.0,29.97,ENE,64,0.0,0.0,88,0.00,,,0.04,,2013-06-12 06:42:00,
2013-06-12 02:52:00,66.0,62.0,29.97,ENE,64,0.0,0.0,88,0.00,,,0.03,,2013-06-12 06:52:00,
2013-06-12 03:02:00,66.0,62.0,29.97,ENE,64,0.0,0.0,88,0.00,,,0.03,,2013-06-12 07:02:00,
2013-06-12 03:11:00,66.0,63.0,29.96,ENE,64,0.0,0.0,89,0.00,,,0.03,,2013-06-12 07:11:00,
2013-06-12 03:12:00,66.0,62.0,29.96,ENE,64,0.0,0.0,88,0.00,,,0.03,,2013-06-12 07:12:00,
2013-06-12 03:22:00,66.0,63.0,29.96,ENE,64,0.0,0.0,89,0.00,,,0.03,,2013-06-12 07:22:00,
2013-06-12 03:33:00,66.0,63.0,29.96,ENE,64,0.0,0.0,89,0.00,,,0.03,,2013-06-12 07:33:00,
2013-06-12 03:43:00,66.0,63.0,29.96,ENE,64,0.0,0.0,89,0.00,,,0.03,,2013-06-12 07:43:00,
2013-06-12 03:53:00,66.0,63.0,29.96,ENE,64,0.0,0.0,89,0.00,,,0.03,,2013-06-12 07:53:00,
2013-06-12 04:02:00,66.0,63.0,29.96,ENE,64,0.0,0.0,89,0.00,,,0.03,,2013-06-12 08:02:00,
2013-06-12 09:01:00,68.0,65.0,29.99,North,5,0.0,0.0,90,0.00,,,0.01,,2013-06-12 13:01:00,
2013-06-12 09:12:00,68.0,65.0,29.99,North,5,0.0,0.0,89,0.00,,,0.01,,2013-06-12 13:12:00,
2013-06-12 09:22:00,68.0,65.0,30.00,NNW,343,0.0,0.0,90,0.00,,,0.01,,2013-06-12 13:22:00,
2013-06-12 09:33:00,68.0,65.0,30.00,NNW,343,0.0,0.0,90,0.00,,,0.01,,2013-06-12 13:33:00,
2013-06-12 09:43:00,68.0,65.0,30.00,West,259,0.0,0.0,90,0.00,,,0.01,,2013-06-12 13:43:00,
2013-06-12 09:53:00,68.0,65.0,30.00,WSW,240,0.0,0.0,90,0.00,,,0.01,,2013-06-12 13:53:00,
2013-06-12 10:02:00,68.0,65.0,30.00,WSW,240,0.0,0.0,90,0.00,,,0.01,,2013-06-12 14:02:00,
2013-06-12 10:11:00,69.0,66.0,30.00,SE,139,0.0,0.0,90,0.00,,,0.01,,2013-06-12 14:11:00,
2013-06-12 10:24:00,69.0,66.0,30.00,South,173,0.0,0.0,90,0.00,,,0.01,,2013-06-12 14:24:00,
2013-06-12 10:33:00,69.0,66.0,30.00,South,173,0.0,0.0,90,0.00,,,0.01,,2013-06-12 14:33:00,
2013-06-12 10:43:00,71.0,68.0,30.00,South,188,0.0,0.0,89,0.00,,,0.01,,2013-06-12 14:43:00,
2013-06-12 10:53:00,71.0,68.0,30.00,South,188,0.0,0.0,89,0.00,,,0.01,,2013-06-12 14:53:00,
2013-06-12 11:01:00,71.0,67.0,30.00,South,188,0.0,0.0,87,0.00,,,0.01,,2013-06-12 15:01:00,
2013-06-12 11:12:00,72.0,68.0,30.00,South,189,0.0,0.0,87,0.00,,,0.01,,2013-06-12 15:12:00,
2013-06-12 11:23:00,72.0,68.0,30.00,South,189,0.0,0.0,87,0.00,,,0.01,,2013-06-12 15:23:00,
2013-06-12 11:33:00,72.0,68.0,30.00,South,189,0.0,0.0,87,0.00,,,0.01,,2013-06-12 15:33:00,
2013-06-12 11:43:00,72.0,68.0,30.00,South,189,0.0,0.0,87,0.00,,,0.01,,2013-06-12 15:43:00,
2013-06-12 12:12:00,77.0,72.0,30.00,South,188,0.0,3.0,84,0.00,,,0.00,,2013-06-12 16:12:00,
2013-06-12 12:22:00,77.0,71.0,30.00,South,182,0.0,1.0,81,0.00,,,0.00,,2013-06-12 16:22:00,
2013-06-12 12:33:00,77.0,71.0,30.00,South,182,0.0,1.0,81,0.00,,,0.00,,2013-06-12 16:33:00,
2013-06-12 12:43:00,77.0,71.0,30.00,ESE,111,0.0,1.0,82,0.00,,,0.00,,2013-06-12 16:43:00,
2013-06-12 12:52:00,77.0,71.0,30.00,ESE,111,0.0,1.0,82,0.00,,,0.00,,2013-06-12 16:52:00,
2013-06-12 13:01:00,77.0,71.0,30.00,ESE,111,0.0,1.0,82,0.00,,,0.00,,2013-06-12 17:01:00,
2013-06-12 13:12:00,78.0,72.0,29.99,SSE,149,1.0,1.0,82,0.00,,,0.00,,2013-06-12 17:12:00,
2013-06-12 13:23:00,79.0,72.0,29.99,SW,236,0.0,4.0,78,0.00,,,0.00,,2013-06-12 17:23:00,
2013-06-12 13:33:00,79.0,72.0,29.99,SW,236,0.0,4.0,78,0.00,,,0.00,,2013-06-12 17:33:00,
2013-06-12 13:42:00,78.0,71.0,29.98,WSW,256,0.0,0.0,78,0.00,,,0.00,,2013-06-12 17:42:00,
2013-06-12 13:52:00,78.0,71.0,29.98,WSW,256,0.0,0.0,78,0.00,,,0.00,,2013-06-12 17:52:00,
2013-06-12 14:02:00,78.0,71.0,29.98,WSW,256,0.0,0.0,78,0.00,,,0.00,,2013-06-12 18:02:00,
2013-06-12 14:12:00,81.0,71.0,29.98,South,180,0.0,3.0,72,0.00,,,0.00,,2013-06-12 18:12:00,
2013-06-12 14:22:00,81.0,71.0,29.98,South,180,0.0,3.0,72,0.00,,,0.00,,2013-06-12 18:22:00,
2013-06-12 14:33:00,81.0,71.0,29.98,South,180,0.0,3.0,72,0.00,,,0.00,,2013-06-12 18:33:00,
2013-06-12 14:43:00,81.0,71.0,29.98,South,180,0.0,3.0,72,0.00,,,0.00,,2013-06-12 18:43:00,
2013-06-12 14:53:00,81.0,71.0,29.98,South,180,0.0,3.0,72,0.00,,,0.00,,2013-06-12 18:53:00,
2013-06-12 15:02:00,83.0,71.0,29.97,ENE,71,1.0,3.0,67,0.00,,,0.00,,2013-06-12 19:02:00,
2013-06-12 15:11:00,83.0,71.0,29.97,ENE,71,1.0,3.0,67,0.00,,,0.00,,2013-06-12 19:11:00,
2013-06-12 15:22:00,83.0,72.0,29.97,ESE,117,0.0,2.0,69,0.00,,,0.00,,2013-06-12 19:22:00,
2013-06-12 15:32:00,83.0,72.0,29.97,ESE,117,0.0,2.0,69,0.00,,,0.00,,2013-06-12 19:32:00,
2013-06-12 15:43:00,83.0,72.0,29.97,ESE,117,0.0,2.0,69,0.00,,,0.00,,2013-06-12 19:43:00,
2013-06-12 15:52:00,83.0,72.0,29.97,ESE,117,0.0,2.0,69,0.00,,,0.00,,2013-06-12 19:52:00,
2013-06-12 16:01:00,83.0,72.0,29.97,ESE,117,0.0,2.0,69,0.00,,,0.00,,2013-06-12 20:01:00,
2013-06-12 16:22:00,82.0,71.0,29.94,ESE,114,0.0,0.0,70,0.00,,,0.00,,2013-06-12 20:22:00,
2013-06-12 16:33:00,82.0,71.0,29.94,ESE,114,0.0,0.0,70,0.00,,,0.00,,2013-06-12 20:33:00,
2013-06-12 16:43:00,82.0,71.0,29.94,ESE,114,0.0,0.0,70,0.00,,,0.00,,2013-06-12 20:43:00,
2013-06-12 16:54:00,81.0,71.0,29.94,SSW,198,0.0,1.0,71,0.00,,,0.00,,2013-06-12 20:54:00,
2013-06-12 17:01:00,81.0,71.0,29.94,SSW,198,0.0,1.0,71,0.00,,,0.00,,2013-06-12 21:01:00,
2013-06-12 17:12:00,80.0,70.0,29.93,SW,220,0.0,1.0,71,0.00,,,0.00,,2013-06-12 21:12:00,
2013-06-12 17:22:00,80.0,69.0,29.93,SSW,198,0.0,0.0,70,0.00,,,0.00,,2013-06-12 21:22:00,
2013-06-12 17:33:00,80.0,69.0,29.93,SSW,198,0.0,0.0,70,0.00,,,0.00,,2013-06-12 21:33:00,
2013-06-12 17:52:00,79.0,70.0,29.93,NW,325,0.0,0.0,74,0.00,,,0.00,,2013-06-12 21:52:00,
2013-06-12 18:11:00,78.0,69.0,29.92,West,279,0.0,1.0,75,0.00,,,0.00,,2013-06-12 22:11:00,
2013-06-12 18:22:00,79.0,70.0,29.92,NNW,329,0.0,0.0,74,0.00,,,0.00,,2013-06-12 22:22:00,
2013-06-12 18:32:00,79.0,70.0,29.92,NNW,329,0.0,0.0,74,0.00,,,0.00,,2013-06-12 22:32:00,
2013-06-12 18:43:00,78.0,69.0,29.92,WNW,288,0.0,1.0,73,0.00,,,0.00,,2013-06-12 22:43:00,
2013-06-12 19:02:00,78.0,68.0,29.92,SW,227,0.0,0.0,71,0.00,,,0.00,,2013-06-12 23:02:00,
2013-06-12 19:12:00,78.0,68.0,29.92,SW,227,0.0,0.0,71,0.00,,,0.00,,2013-06-12 23:12:00,
2013-06-12 19:22:00,78.0,67.0,29.92,SW,229,0.0,0.0,70,0.00,,,0.00,,2013-06-12 23:22:00,
2013-06-12 19:32:00,78.0,67.0,29.92,SW,229,0.0,0.0,70,0.00,,,0.00,,2013-06-12 23:32:00,
2013-06-12 19:42:00,78.0,67.0,29.92,SW,229,0.0,0.0,70,0.00,,,0.00,,2013-06-12 23:42:00,
2013-06-12 19:52:00,78.0,67.0,29.92,SW,229,0.0,0.0,70,0.00,,,0.00,,2013-06-12 23:52:00,
2013-06-12 20:01:00,78.0,67.0,29.92,SW,229,0.0,0.0,70,0.00,,,0.00,,2013-06-13 00:01:00,
2013-06-12 20:33:00,76.0,68.0,29.92,WNW,302,0.0,0.0,76,0.00,,,0.00,,2013-06-13 00:33:00,
2013-06-12 20:43:00,76.0,69.0,29.92,WNW,302,0.0,0.0,78,0.00,,,0.00,,2013-06-13 00:43:00,
2013-06-12 20:52:00,76.0,69.0,29.92,WNW,302,0.0,0.0,79,0.00,,,0.00,,2013-06-13 00:52:00,
2013-06-12 21:01:00,76.0,69.0,29.92,WNW,302,0.0,0.0,78,0.00,,,0.00,,2013-06-13 01:01:00,
2013-06-12 21:12:00,76.0,69.0,29.92,WNW,302,0.0,0.0,78,0.00,,,0.00,,2013-06-13 01:12:00,
2013-06-12 21:22:00,76.0,69.0,29.92,WNW,302,0.0,0.0,78,0.00,,,0.00,,2013-06-13 01:22:00,
2013-06-12 21:32:00,76.0,69.0,29.92,WNW,302,0.0,0.0,78,0.00,,,0.00,,2013-06-13 01:32:00,
2013-06-12 21:43:00,76.0,69.0,29.92,WNW,302,0.0,0.0,78,0.00,,,0.00,,2013-06-13 01:43:00,
2013-06-12 21:53:00,76.0,69.0,29.92,WNW,302,0.0,0.0,78,0.00,,,0.00,,2013-06-13 01:53:00,
2013-06-12 22:02:00,75.0,69.0,29.92,WNW,302,0.0,0.0,81,0.00,,,0.00,,2013-06-13 02:02:00,
2013-06-12 22:12:00,74.0,68.0,29.93,WNW,302,0.0,0.0,82,0.00,,,0.00,,2013-06-13 02:12:00,
2013-06-12 22:22:00,74.0,68.0,29.93,WNW,302,0.0,0.0,82,0.00,,,0.00,,2013-06-13 02:22:00,
2013-06-12 22:33:00,74.0,68.0,29.93,WNW,302,0.0,0.0,82,0.00,,,0.00,,2013-06-13 02:33:00,
2013-06-12 22:43:00,74.0,68.0,29.93,WNW,302,0.0,0.0,82,0.00,,,0.00,,2013-06-13 02:43:00,